Simultaneous Nadir Overpasses (SNOs) Predictions

Prediction of SNOs between GOES-14 and AQUA Satellite Orbit:

Table of predicted SNOs for the next 14.0 days since TLE Epoch: 12/17/2022
Index Date Time (GOES-14) GOES-14 Lat,Lon AQUA Lat,Lon Distance(km) Time Diff (sec)
1 12/17/2022 20:39:18 0.07,-104.03 -0.02,-104.42 43.96 80
2 12/19/2022 20:28:59 0.06,-104.04 0.66,-101.26 316.70 80
3 12/20/2022 08:50:04 -0.07,-104.42 0.32,-106.38 222.16 80
4 12/22/2022 08:34:24 -0.06,-104.42 -0.32,-103.21 137.83 80
5 12/22/2022 20:55:34 0.07,-104.03 -0.87,-108.32 488.85 80
6 12/24/2022 08:21:24 -0.05,-104.41 -0.99,-100.04 497.54 80
7 12/24/2022 20:42:34 0.06,-104.03 -0.19,-105.16 128.75 80
8 12/26/2022 20:32:14 0.06,-104.03 0.51,-101.99 231.53 80
9 12/27/2022 08:53:18 -0.07,-104.42 0.51,-107.11 305.58 80
10 12/29/2022 08:37:37 -0.07,-104.43 -0.16,-103.94 55.34 80
